Location: Unspecified
(41.4057°N, 2.1753°E)
Time: 00:25:37
(UTC+01:00)

ISS - Visible Passes

Search period start: 24 January 2018 00:00
Search period end: 03 February 2018 00:00
Orbit: 402 x 407 km, 51.6° (Epoch: 24 January)

Date Brightness Start Highest point End Pass type
(mag) Time Alt. Az. Time Alt. Az. Time Alt. Az.
24 Jan -1.8 19:01:09 10° SSE 19:02:55 14° SE 19:03:26 13° ESE visible
24 Jan -0.5 20:35:47 10° WSW 20:36:07 12° WSW 20:36:07 12° WSW visible
25 Jan -3.5 19:43:31 10° SW 19:46:21 57° S 19:46:21 57° S visible
26 Jan -2.9 18:51:34 10° SSW 18:54:30 32° SE 18:56:29 17° E visible
26 Jan -1.0 20:27:58 10° W 20:29:09 19° W 20:29:09 19° W visible
27 Jan -3.3 19:35:21 10° WSW 19:38:33 54° NNW 19:39:12 44° NNE visible
28 Jan -3.9 18:42:56 10° SW 18:46:11 82° SE 18:49:10 12° NE visible
28 Jan -1.2 20:20:26 10° WNW 20:21:50 17° NW 20:21:50 17° NW visible
29 Jan -2.3 19:27:33 10° W 19:30:26 28° NNW 19:31:44 21° NNE visible
30 Jan -3.0 18:34:48 10° WSW 18:37:57 44° NNW 18:41:07 10° NE visible
30 Jan -1.1 20:12:58 10° NW 20:14:13 14° NNW 20:14:13 14° NNW visible
31 Jan -1.7 19:19:58 10° WNW 19:22:24 19° NNW 19:24:01 14° NNE visible
01 Feb -1.2 20:05:20 10° NW 20:06:25 13° NNW 20:06:25 13° NNW visible
02 Feb -1.5 19:12:27 10° NW 19:14:25 15° N 19:16:09 11° NNE visible
